Location: Huesca
(42.1318°N, 0.4078°W)
Time: 15:25:43
(UTC+02:00)

AO-7 - Visible Passes

Search period start: 13 April 2024 00:00
Search period end: 23 April 2024 00:00
Orbit: 1440 x 1458 km, 102.0° (Epoch: 12 April)

Date Brightness Start Highest point End Pass type
(mag) Time Alt. Az. Time Alt. Az. Time Alt. Az.
13 Apr ? 06:52:01 10° NNE 07:00:00 47° E 07:07:52 10° S visible
14 Apr ? 05:53:46 10° NE 05:59:19 19° E 06:04:49 10° SE visible
15 Apr ? 06:45:02 10° NNE 06:52:51 42° E 07:00:34 10° S visible
16 Apr ? 05:47:07 10° NE 05:52:06 17° E 05:57:01 10° SE visible
17 Apr ? 06:38:04 10° NNE 06:45:42 38° E 06:53:14 10° SSE visible
18 Apr ? 05:40:36 10° ENE 05:44:51 15° E 05:49:05 10° ESE visible
19 Apr ? 06:31:07 10° NE 06:38:32 34° E 06:45:51 10° SSE visible
20 Apr ? 05:34:18 10° ENE 05:37:37 13° E 05:40:55 10° ESE visible
21 Apr ? 06:24:12 10° NE 06:31:22 31° E 06:38:26 10° SSE visible
22 Apr ? 05:28:32 10° ENE 05:30:22 11° E 05:32:10 10° E visible
